[[{"header":{"parameterUnit":"m.s-1","parameterCategory":1,"la1":30.2991,"la2":30.254,"lo1":-89.0895,"lo2":-89.0444,"dy":0.0017,"dx":0.0017,"nx":28,"ny":28,"refTime":"2024-06-01T21:00:00:Z","depth":0,"parameterNumber":2,"parameterNumberName":"U-component_of_WINDS"},"data":[0,0,0,0,0,0,0,0,0,0,0,0,0,0,0,0,0,0,0,0,0,0,0,0,0,0,0,0,0,0,0,0,0,0,0,0,0,0,0,0,0,0,0,0,0,0,0,0,0,0,0,0,0,0,0,0,0,0,-2.0565,-2.0564,0,-2.0539,-2.0539,-2.0539,-2.0484,-2.0483,-2.0482,-2.0481,-2.0457,-2.0457,-2.0458,0,0,0,0,0,0,0,0,0,0,0,0,0,-2.0566,-2.0566,-2.0565,-2.0564,-2.0564,-2.0539,-2.0539,-2.0538,-2.0484,-2.0483,-2.0481,-2.048,-2.0457,-2.0457,-2.0458,0,0,0,0,0,0,0,0,0,0,0,0,0,-2.0556,-2.0566,-2.0565,-2.0534,-2.0531,-2.0539,-2.0539,-2.0538,-2.0484,-2.0483,-2.0481,-2.0479,-2.0456,-2.0457,-2.0458,-2.0495,0,0,-2.046,-2.046,0,0,0,0,0,0,0,0,-2.0556,-2.0556,-2.0539,-2.0536,-2.0533,-2.0513,-2.053,-2.0524,-2.0485,-2.0502,-2.048,-2.0479,-2.0477,-2.0476,-2.0475,-2.0494,-2.0493,-2.046,-2.046,-2.046,-2.046,0,0,0,0,0,0,0,-2.0557,-2.0556,-2.0555,-2.0538,-2.0535,-2.0521,-2.0518,-2.0529,-2.0499,-2.05,-2.0496,-2.0494,-2.0475,-2.0474,-2.0474,-2.0492,-2.046,-2.046,-2.046,-2.0461,-2.0537,-2.0538,0,0,0,0,0,0,-2.0562,-2.0557,-2.0555,-2.0554,-2.054,-2.0522,-2.0519,-2.0521,-2.0499,-2.0494,-2.0495,-2.0491,-2.0474,-2.0473,-2.0473,-2.0512,-2.046,-2.0461,-2.0461,-2.0535,-2.0537,-2.0539,0,0,0,0,0,0,-2.0562,-2.0562,-2.0556,-2.0554,-2.0553,-2.0524,-2.0527,-2.0521,-2.052,-2.0495,-2.049,-2.05,-2.0473,-2.0472,-2.0489,-2.051,-2.0461,-2.0462,-2.0533,-2.0536,-2.0538,-2.0592,0,0,0,0,0,0,-2.0563,-2.0563,-2.0577,-2.0555,-2.0553,-2.0573,-2.0529,-2.0522,-2.0521,-2.0516,-2.0498,-2.0494,-2.0471,-2.0488,-2.0489,-2.051,-2.0462,-2.0531,-2.0534,-2.0537,-2.0589,-2.0596,-2.0603,0,0,0,0,0,-2.0563,-2.0595,-2.0578,-2.0578,-2.057,-2.0575,-2.0573,-2.0546,-2.0523,-2.0537,-2.052,-2.0494,-2.0508,-2.049,-2.0491,-2.0513,-2.0529,-2.0533,-2.0537,-2.0585,-2.0595,-2.0603,0,0,0,0,0,0,-2.0622,-2.0592,-2.0573,-2.0598,-2.0589,-2.0565,-2.0582,-2.0558,-2.0556,-2.0551,-2.0518,-2.0515,-2.0535,-2.0526,-2.0507,-2.0546,-2.0514,-2.0518,-2.0551,-2.056,-2.0567,-2.0568,-2.0463,0,0,0,0,0,-2.0637,-2.0643,-2.0617,-2.0642,-2.0638,-2.0611,-2.0612,-2.0592,-2.0581,-2.0577,-2.0562,-2.0553,-2.0555,-2.0557,-2.0558,-2.0587,-2.0581,-2.0602,-2.061,-2.0616,-2.0619,-2.0631,-2.0639,-2.0551,-2.0551,-2.0551,0,0,-2.0671,-2.0655,-2.0661,-2.0653,-2.0644,-2.065,-2.0608,-2.0618,-2.0621,-2.0579,-2.0593,-2.0581,-2.0569,-2.0591,-2.06,-2.0584,-2.0642,-2.062,-2.0626,-2.0626,-2.0635,-2.0644,-2.0651,-2.0553,-2.0553,-2.0553,0,0,-2.0733,-2.0723,-2.0741,-2.0731,-2.0717,-2.0698,-2.0702,-2.0681,-2.0671,-2.0684,-2.0651,-2.0656,-2.0661,-2.0652,-2.0649,-2.0705,-2.068,-2.0706,-2.0744,-2.0756,-2.0763,-2.0769,-2.0786,-2.0793,-2.071,-2.071,-2.071,0,-2.0776,-2.0784,-2.0754,-2.0764,-2.076,-2.072,-2.0738,-2.073,-2.0717,-2.0716,-2.0698,-2.07,-2.069,-2.0708,-2.0721,-2.072,-2.0723,-2.0708,-2.0764,-2.077,-2.0775,-2.0791,-2.0798,-2.0713,-2.0713,-2.0713,-2.0712,0,-2.0836,-2.0842,-2.0858,-2.0844,-2.0843,-2.0857,-2.0828,-2.083,-2.0809,-2.0792,-2.0804,-2.079,-2.0785,-2.0788,-2.0769,-2.0803,-2.0793,-2.077,-2.0738,-2.0787,-2.0801,-2.0808,-2.0718,-2.0717,-2.0716,-2.0715,0,0,-2.0936,-2.0903,-2.0909,-2.0901,-2.088,-2.0884,-2.0895,-2.0889,-2.089,-2.0883,-2.089,-2.0893,-2.0871,-2.0867,-2.0846,-2.0857,-2.0898,-2.0832,-2.0831,-2.0843,-2.0931,-2.0947,-2.0955,-2.0882,-2.0883,-2.0884,-2.0931,0,-2.0993,-2.1009,-2.098,-2.1003,-2.1006,-2.0967,-2.0977,-2.0965,-2.0948,-2.0949,-2.0931,-2.0933,-2.0905,-2.0901,-2.091,-2.0892,-2.0915,-2.0888,-2.0887,-2.0888,-2.089,-2.0963,-2.098,-2.1026,-2.0937,-2.0938,-2.0939,0,-2.1061,-2.1053,-2.1076,-2.1051,-2.1051,-2.106,-2.105,-2.1052,-2.1037,-2.1024,-2.1018,-2.0992,-2.1,-2.097,-2.098,-2.0962,-2.096,-2.095,-2.0951,-2.0949,-2.0915,-2.096,-2.104,-2.1046,-2.0948,-2.0947,-2.0947,0,-2.1128,-2.1124,-2.1136,-2.113,-2.1102,-2.1109,-2.1097,-2.1081,-2.1078,-2.107,-2.1067,-2.1061,-2.1057,-2.1053,-2.1026,-2.1006,-2.1038,-2.1006,-2.1026,-2.1027,-2.1034,-2.1033,-2.1112,-2.1036,-2.1036,-2.1036,-2.1036,0,-2.1193,-2.1208,-2.1165,-2.1172,-2.1187,-2.1154,-2.1169,-2.1154,-2.1139,-2.1142,-2.1109,-2.1112,-2.1077,-2.1077,-2.1056,-2.1066,-2.1065,-2.1054,-2.1048,-2.1056,-2.1057,-2.1053,-2.1049,-2.1038,-2.1037,-2.1037,-2.1037,0,-2.127,-2.1243,-2.1252,-2.1224,-2.1217,-2.1229,-2.1204,-2.1209,-2.119,-2.1194,-2.1193,-2.1163,-2.116,-2.1133,-2.1125,-2.1111,-2.1128,-2.1117,-2.1132,-2.1128,-2.1149,-2.1146,-2.1226,-2.1234,-2.1155,-2.1156,-2.1157,0,-2.1313,-2.1322,-2.1294,-2.1293,-2.1282,-2.1281,-2.1277,-2.1245,-2.1242,-2.1224,-2.123,-2.1225,-2.1218,-2.1216,-2.1193,-2.1186,-2.1174,-2.1202,-2.1173,-2.1179,-2.1171,-2.117,-2.1169,-2.1208,-2.1209,-2.121,-2.121,0,-2.139,-2.1374,-2.137,-2.1359,-2.1354,-2.1345,-2.1334,-2.1335,-2.1299,-2.1297,-2.1293,-2.1288,-2.1278,-2.1272,-2.126,-2.1249,-2.1223,-2.122,-2.1224,-2.1231,-2.1238,-2.1232,-2.1147,-2.1218,-2.1217,-2.1217,-2.1216,-2.1216,-2.1449,-2.1454,-2.1434,-2.1429,-2.1416,-2.1405,-2.1407,-2.1387,-2.1383,-2.1371,-2.1353,-2.135,-2.1333,-2.1314,-2.1304,-2.1302,-2.1287,-2.1294,-2.1295,-2.1296,-2.1299,-2.124,-2.13,-2.13,-2.13,-2.1299,-2.1299,0,-2.1521,-2.1506,-2.1501,-2.1485,-2.148,-2.1455,-2.1441,-2.1438,-2.1436,-2.1422,-2.1415,-2.1409,-2.1402,-2.1378,-2.1369,-2.1371,-2.1359,-2.137,-2.1368,-2.1365,-2.1314,-2.1311,-2.138,-2.138,-2.138,-2.138,-2.138,-2.1379,-2.1559,-2.1565,-2.1548,-2.1547,-2.1532,-2.1528,-2.1521,-2.1511,-2.1498,-2.1492,-2.1486,-2.147,-2.1451,-2.1439,-2.1431,-2.1424,-2.1422,-2.1436,-2.1425,-2.1377,-2.137,-2.1362,-2.1358,-2.1436,-2.1436,-2.1476,-2.1476,-2.1476]},{"header":{"parameterUnit":"m.s-1","parameterCategory":1,"la1":30.2991,"la2":30.254,"lo1":-89.0895,"lo2":-89.0444,"dy":0.0017,"dx":0.0017,"nx":28,"ny":28,"refTime":"2024-06-01T21:00:00:Z","depth":0,"parameterNumber":3,"parameterNumberName":"V-component_of_WINDS"},"data":[0,0,0,0,0,0,0,0,0,0,0,0,0,0,0,0,0,0,0,0,0,0,0,0,0,0,0,0,0,0,0,0,0,0,0,0,0,0,0,0,0,0,0,0,0,0,0,0,0,0,0,0,0,0,0,0,0,0,-0.9693,-0.969,0,-0.9427,-0.9424,-0.9421,-0.9306,-0.9306,-0.9307,-0.9307,-0.9016,-0.9008,-0.9,0,0,0,0,0,0,0,0,0,0,0,0,0,-1.0081,-1.0075,-0.9693,-0.969,-0.9686,-0.9428,-0.9424,-0.942,-0.9306,-0.9306,-0.9307,-0.9307,-0.9018,-0.9009,-0.8999,0,0,0,0,0,0,0,0,0,0,0,0,0,-0.9874,-1.0073,-0.9694,-0.9599,-0.9587,-0.9428,-0.9424,-0.9419,-0.9306,-0.9306,-0.9307,-0.9308,-0.9022,-0.901,-0.8998,-0.8907,0,0,-0.896,-0.8955,0,0,0,0,0,0,0,0,-0.9885,-0.9859,-0.9616,-0.9605,-0.9592,-0.9401,-0.9454,-0.9247,-0.9305,-0.9412,-0.9307,-0.9308,-0.9142,-0.912,-0.9068,-0.8894,-0.8881,-0.8959,-0.8951,-0.8946,-0.8943,0,0,0,0,0,0,0,-0.99,-0.987,-0.9587,-0.9612,-0.9598,-0.9562,-0.9534,-0.9414,-0.9275,-0.9403,-0.9394,-0.9365,-0.9135,-0.908,-0.906,-0.8877,-0.8959,-0.8948,-0.8941,-0.8936,-0.861,-0.8609,0,0,0,0,0,0,-0.9933,-0.9883,-0.9596,-0.9579,-0.9744,-0.9555,-0.9523,-0.9461,-0.9277,-0.925,-0.9365,-0.9361,-0.9101,-0.9075,-0.9049,-0.8929,-0.8946,-0.8935,-0.8928,-0.8612,-0.861,-0.8609,0,0,0,0,0,0,-0.9942,-0.9908,-0.9606,-0.9729,-0.9688,-0.9548,-0.9479,-0.9455,-0.94,-0.9248,-0.9221,-0.9335,-0.91,-0.9067,-0.8944,-0.8917,-0.8929,-0.8918,-0.8613,-0.8611,-0.8609,-0.869,0,0,0,0,0,0,-0.9953,-0.9912,-0.9881,-0.9729,-0.9682,-0.9512,-0.9478,-0.945,-0.9381,-0.9374,-0.9213,-0.9187,-0.9098,-0.8963,-0.8932,-0.8901,-0.8908,-0.8615,-0.8612,-0.861,-0.8689,-0.8691,-0.8693,0,0,0,0,0,-0.9968,-0.9911,-0.9881,-0.9846,-0.9641,-0.9511,-0.9483,-0.9388,-0.938,-0.9344,-0.9246,-0.9192,-0.8926,-0.8951,-0.8915,-0.888,-0.8616,-0.8613,-0.861,-0.8688,-0.8691,-0.8693,0,0,0,0,0,0,-1.0058,-0.989,-0.9854,-0.9748,-0.9645,-0.9492,-0.9444,-0.9394,-0.9286,-0.9283,-0.9163,-0.9127,-0.9014,-0.8934,-0.8966,-0.8781,-0.8766,-0.8756,-0.8837,-0.8839,-0.8841,-0.8861,-0.8898,0,0,0,0,0,-1.0067,-0.9981,-0.9836,-0.9756,-0.9707,-0.9585,-0.9524,-0.9461,-0.9346,-0.9301,-0.9193,-0.908,-0.897,-0.89,-0.8791,-0.8677,-0.8637,-0.8635,-0.8637,-0.8639,-0.8631,-0.8561,-0.8557,-0.8599,-0.8599,-0.8599,0,0,-1.0081,-0.9979,-0.9931,-0.9772,-0.9685,-0.9592,-0.9549,-0.9453,-0.9382,-0.9284,-0.9163,-0.908,-0.8944,-0.8826,-0.8767,-0.8755,-0.861,-0.8636,-0.8639,-0.8628,-0.8557,-0.8553,-0.855,-0.8597,-0.8598,-0.8598,0,0,-1.0061,-0.9978,-0.9901,-0.9816,-0.9687,-0.9605,-0.9587,-0.9441,-0.9384,-0.9262,-0.9186,-0.9095,-0.891,-0.8816,-0.8744,-0.8687,-0.8631,-0.8654,-0.8664,-0.8597,-0.8593,-0.859,-0.8566,-0.8559,-0.8647,-0.8647,-0.8647,0,-1.0094,-0.9959,-0.9866,-0.9776,-0.9705,-0.9619,-0.9536,-0.9455,-0.9295,-0.9245,-0.9236,-0.9001,-0.8903,-0.8759,-0.8746,-0.8691,-0.8661,-0.8672,-0.8603,-0.8598,-0.8593,-0.8569,-0.8561,-0.8651,-0.865,-0.865,-0.865,0,-1.0004,-0.9911,-0.9864,-0.9718,-0.9641,-0.9555,-0.9443,-0.9376,-0.9318,-0.9236,-0.9109,-0.899,-0.8854,-0.8815,-0.8755,-0.8661,-0.8658,-0.8627,-0.8609,-0.8594,-0.8569,-0.8559,-0.8656,-0.8655,-0.8654,-0.8653,0,0,-1.0033,-0.9838,-0.9822,-0.9754,-0.9604,-0.9527,-0.9433,-0.9307,-0.925,-0.9141,-0.9056,-0.8902,-0.8872,-0.879,-0.8718,-0.866,-0.8619,-0.8635,-0.863,-0.8634,-0.8503,-0.8526,-0.8517,-0.8582,-0.858,-0.8578,-0.8513,0,-0.9991,-0.983,-0.9742,-0.9613,-0.9523,-0.9439,-0.9356,-0.9252,-0.9173,-0.9079,-0.8987,-0.8879,-0.885,-0.88,-0.8739,-0.8637,-0.859,-0.8641,-0.8495,-0.8491,-0.8531,-0.8504,-0.8528,-0.8473,-0.8503,-0.8501,-0.85,0,-0.9921,-0.982,-0.9685,-0.9545,-0.9503,-0.9433,-0.9308,-0.9221,-0.9098,-0.9044,-0.8953,-0.8883,-0.8774,-0.8766,-0.8612,-0.8648,-0.8583,-0.8523,-0.8519,-0.8499,-0.8494,-0.8481,-0.8454,-0.8445,-0.8484,-0.8486,-0.8487,0,-0.9953,-0.9782,-0.9679,-0.9623,-0.9457,-0.9409,-0.9336,-0.9215,-0.9143,-0.9032,-0.8983,-0.8858,-0.8789,-0.869,-0.8585,-0.859,-0.8439,-0.8423,-0.8385,-0.8388,-0.8356,-0.8359,-0.8315,-0.8318,-0.8318,-0.8319,-0.8319,0,-0.9915,-0.9834,-0.9691,-0.9628,-0.9533,-0.943,-0.9336,-0.9256,-0.9149,-0.9062,-0.8979,-0.8898,-0.8765,-0.8666,-0.8582,-0.8464,-0.8433,-0.8381,-0.836,-0.8388,-0.8394,-0.8342,-0.8342,-0.8316,-0.8317,-0.8317,-0.8318,0,-0.9934,-0.9836,-0.9717,-0.9571,-0.9532,-0.9469,-0.934,-0.927,-0.9187,-0.9078,-0.9046,-0.8912,-0.879,-0.8677,-0.8513,-0.8456,-0.8336,-0.8309,-0.838,-0.8368,-0.8335,-0.8339,-0.8253,-0.8235,-0.8255,-0.8255,-0.8255,0,-0.9916,-0.9853,-0.9701,-0.9641,-0.9572,-0.9474,-0.9402,-0.9296,-0.9223,-0.9078,-0.9025,-0.8899,-0.8792,-0.86,-0.8483,-0.8356,-0.8324,-0.8303,-0.8304,-0.8333,-0.8319,-0.8324,-0.8315,-0.8304,-0.8304,-0.8305,-0.8305,0,-0.9892,-0.9846,-0.975,-0.9635,-0.9553,-0.9455,-0.9355,-0.9308,-0.9181,-0.9102,-0.898,-0.8898,-0.8733,-0.8606,-0.8465,-0.8382,-0.8319,-0.8306,-0.829,-0.8317,-0.8359,-0.8333,-0.8382,-0.8308,-0.8307,-0.8307,-0.8307,-0.8307,-0.9889,-0.9828,-0.9713,-0.9606,-0.952,-0.9428,-0.9356,-0.9265,-0.9164,-0.9026,-0.8967,-0.8842,-0.8715,-0.8522,-0.8439,-0.8335,-0.8321,-0.8298,-0.8292,-0.8287,-0.8292,-0.8379,-0.8308,-0.8308,-0.8308,-0.8308,-0.8308,0,-0.9858,-0.978,-0.9684,-0.9549,-0.9463,-0.942,-0.9305,-0.9234,-0.9128,-0.9019,-0.8917,-0.8774,-0.865,-0.8525,-0.8392,-0.8332,-0.83,-0.8301,-0.8302,-0.8283,-0.8313,-0.8339,-0.8329,-0.8329,-0.8329,-0.8329,-0.8329,-0.8329,-0.9833,-0.9727,-0.9668,-0.9516,-0.9435,-0.9318,-0.9256,-0.9168,-0.908,-0.8927,-0.8826,-0.8748,-0.8629,-0.8487,-0.8369,-0.8334,-0.8287,-0.8296,-0.8253,-0.8282,-0.8282,-0.8281,-0.8305,-0.8287,-0.8287,-0.8231,-0.823,-0.823]}]]